Weather Roundup
Issued by NWS

Home | Current Version | Previous Version | Graphics & Text | Print | Product List | Glossary Off
Versions: 1 2 3 4 5 6 7 8 9 10 11 12 13 14 15 16 17 18 19 20 21 22 23 24 25 26 27 28 29 30 31 32 33 34 35 36 37 38 39 40 41 42 43 44 45 46 47 48 49 50

000
NZUS93 KARX 291159
HRRWXR

CURRENT HOURLY OBSERVATIONS ACROSS
MUCH OF THE UPPER MISSISSIPPI VALLEY
NATIONAL WEATHER SERVICE LA CROSSE WI
700 AM CDT FRI APR 29 2016


...SOUTHEAST MINNESOTA...


CITY           SKY/WX    TMP DP  RH WIND       PRES   REMARKS
ROCHESTER      MOCLDY    37  36  96 N10       30.14S WCI  30
ROCHESTER/MAYO CLOUDY    38  38 100 N3        30.15S
WINONA         CLOUDY    39  36  87 NW3       30.17R
AUSTIN         MOCLDY    36  34  93 CALM      30.14R FOG
ALBERT LEA     NOT AVBL
DODGE CENTER   PTCLDY    36  36 100 N6        30.15R FOG     WCI  31
PRESTON        CLOUDY    36  34  94 NE7       30.14S WCI  30
OWATONNA       CLEAR     36  34  93 N3        30.18R FOG
FARIBAULT      NOT AVBL
$$

...ELSEWHERE IN MINNESOTA...


CITY           SKY/WX    TMP DP  RH WIND       PRES   REMARKS
MINNEAPOLIS    CLOUDY    37  35  92 SW5       30.17R FOG     WCI  33
INTNL FALLS    CLOUDY    36  30  79 NE6       30.21R WCI  31
DULUTH         PTCLDY    34  26  72 NE5       30.17R WCI  30
RED WING       CLOUDY    37  36  93 CALM      30.16S FOG
REDWOOD FALLS  CLOUDY    38  36  92 CALM      30.19R
MANKATO        CLOUDY    37  34  87 N7        30.19R WCI  32
WORTHINGTON    CLOUDY    38  35  89 N5        30.16R WCI  34
FAIRMONT       CLOUDY    39  28  65 N5        30.16R
$$

...SOUTHWEST WISCONSIN...


CITY           SKY/WX    TMP DP  RH WIND       PRES   REMARKS
LA CROSSE      CLOUDY    41  37  86 N7        30.15R
PRAIRIE DU CHI CLOUDY    41  36  83 CALM      30.13R
BOSCOBEL       CLOUDY    41  37  86 VRB3      30.15R
LONE ROCK      CLOUDY    40  36  86 N6        30.13R
PLATTEVILLE    CLOUDY    40  39  96 N6        30.11R
FORT MC COY    CLOUDY    38  38  97 CALM      30.15S
CAMP DOUGLAS   CLOUDY    37  37 100 W6        30.13R WCI  33
MAUSTON-NEW LI NOT AVBL
VIROQUA        CLOUDY    37  37 100 N5        30.12S WCI  33
WIS DELLS      CLOUDY    37  36  95 W5        30.12R WCI  33
$$

...ELSEWHERE IN WISCONSIN...


CITY           SKY/WX    TMP DP  RH WIND       PRES   REMARKS
MILWAUKEE      CLOUDY    40  38  93 N6        30.09R
MADISON        PTSUNNY   39  37  92 NW5       30.11R
GREEN BAY      CLOUDY    41  34  76 N6        30.12R
EAU CLAIRE     NOT AVBL
BLACK RVR FLS  CLOUDY    38  38 100 CALM      30.15R
MEDFORD        CLOUDY    36  36 100 CALM      30.12R
WAUSAU         CLOUDY    40  36  86 N6        30.12R
WIS RAPIDS     CLOUDY    40  34  79 NE9       30.14R WCI  34
MARSHFIELD     CLOUDY    39  35  86 N7        30.12R WCI  34
RICE LAKE      CLOUDY    33  29  85 CALM      30.17R
$$

...NORTHEAST IOWA...


CITY           SKY/WX    TMP DP  RH WIND       PRES   REMARKS
WATERLOO       CLOUDY    42  39  89 N7        30.13R
DUBUQUE        CLOUDY    40  39  97 N6        30.11R
DECORAH        MOCLDY    39  39 100 N6        30.12R WCI  35
MASON CITY     CLOUDY    41  39  93 N8        30.15S
CHARLES CITY   CLOUDY    39  39 100 N6        30.14R WCI  35
OELWEIN        CLOUDY    41  41 100 NE8       30.13R
$$

...ELSEWHERE IN IOWA...


CITY           SKY/WX    TMP DP  RH WIND       PRES   REMARKS
DES MOINES     CLOUDY    46  41  82 N8        30.09F
IOWA CITY      CLOUDY    45  41  86 N12       30.08F
FORT DODGE     CLOUDY    41  37  87 N6        30.13S
MARSHALLTOWN   CLOUDY    43  42  97 N12       30.08F FOG
CEDAR RAPIDS   CLOUDY    43  42  97 N9        30.08F
$$

...NORTHERN ILLINOIS...


CITY           SKY/WX    TMP DP  RH WIND       PRES   REMARKS
CHICAGO-OHARE  CLOUDY    42  41  96 N12       30.08R FOG
CHICAGO-MIDWAY CLOUDY    45  41  86 NW10      30.08R FOG
MOLINE         CLOUDY    46  42  86 N9        30.08F FOG
ROCKFORD       CLOUDY    43  39  86 N6        30.12R
PEORIA         CLOUDY    48  45  89 NE9       30.06S FOG
$$

NOTE: "FAIR" INDICATES FEW OR NO CLOUDS BELOW 12,000 FEET WITH NO
SIGNIFICANT WEATHER AND/OR OBSTRUCTIONS TO VISIBILITY. WIND
SPEEDS ARE IN MILES-PER-HOUR.




USA.gov is the U.S. government's official web portal to all federal, state and local government web resources and services.